User: anonymous   Login
Location: Brachstadt
(48.6975°N, 10.6755°E)
Time: 11:12:55
(UTC+00:00)
Language:

ATLAS 2AS CENTAUR R/B - Orbit

View from above orbital plane
View from above orbital plane
View from above satellite
View from above satellite

Ground track
Ground track

The orbit data is extracted from the following two-line orbital elements,

1 28096U 03054B   20328.20375981 0.00000000  00000-0  00000-0 0    00
2 28096  63.6758 126.1088 0223320 223.4927 136.5073 13.40863865    08
Epoch (UTC): 23 November 2020 04:53:24
Eccentricity: 0.0223320
inclination: 63.6758°
perigee height: 939 km
apogee height: 1273 km
right ascension of ascending node: 126.1088°
argument of perigee: 223.4927°
revolutions per day: 13.40863865
mean anomaly at epoch: 136.5073°
orbit number at epoch: 0

The dashed part of the orbit path shows where the satellite is in the earth's shadow,  

DLR